Weather in Kosa

Russia / Perm Krai     59°56′39″N   54°59′20″E
temp.,
°C
wind,
m/s
gust,
m/s
humid.,
%
clouds,
%
prec.,
mm/h
press.,
hPa
HPBL,
m
28 february, sun
sun2823:00−20ese3109155 0.0 1012330
02:00−22e39940 0.0 1012215
05:00−24e26940 0.0 1013137
08:00−25ene25940 0.0 1014109
11:00−20ene36890 0.0 1014276
14:00−15ene35855 0.0 1013508
17:00−14ne258852 0.0 1014511
20:00−19nne229773 0.0 101521
1 march, mon
mon123:00−20nne229962 0.0 101720
02:00−22ne11988 0.0 101820
05:00−23sse00984 0.0 101920
08:00−24wsw11980 0.0 101920
11:00−18ssw23920 0.0 1019180
14:00−13ssw248819 0.0 1017403
17:00−12ssw379050 0.0 1015439
20:00−15s41194100 0.0 1012352
2 march, tue
tue223:00−14ssw51192100 0.0 1010421
02:00−15s51191100 0.0 1007424
05:00−14s51294100 0.2 1004488
08:00−13s51294100 0.7 1001535
11:00−12s51093100 1.6 1000550
14:00−11s5992100 0.7 998518
17:00−11s4893100 1.1 998501
20:00−12s3895100 0.7 998416
3 march, wed
wed323:00−12s3795100 1.3 998324
02:00−12s3695100 0.2 997257
05:00−13s269698 0.4 997188
08:00−13sse239794 0.2 99792
11:00−10ssw019393 0.4 997198
14:00−8nnw3591100 0.3 998519
17:00−7nnw3793100 0.6 999636
20:00−8nw31095100 0.4 999550
4 march, thu
thu423:00−12nw389668 0.4 1001188
02:00−13wnw279766 0.1 1000205
05:00−13w379779 0.1 1001159
08:00−12w379599 0.2 1001268
11:00−11w359494 0.3 1000291
14:00−8sw358998 0.0 999563
17:00−7s478999 0.1 997744
20:00−8s51294100 0.3 994725